EW1858 Weather Reports


time (UTC)temp
F
wind
direction
speed
knots
gust
knots
rain 1hr
in
rain 24hr
in
rain mn
in
humidity
%
barometer
mb
20260507144505 57 203 1.7 7.0 0.00 0.01 0.00 49 1011.9
20260507143119 56 143 1.7 4.3 0.00 0.01 0.00 49 1011.9
20260507141533 55 142 2.6 5.2 0.00 0.03 0.01 47 1012.2
20260507140028 55 291 1.7 7.0 0.00 0.03 0.01 48 1012.6
20260507134558 54 353 0.9 2.6 0.00 0.03 0.01 51 1012.6
20260507133057 53 152 0.9 6.1 0.00 0.03 0.01 52 1012.7
20260507131526 52 61 1.7 3.5 0.00 0.07 0.01 55 1012.8
20260507130028 51 43 1.7 3.5 0.00 0.07 0.01 60 1012.8
20260507124603 50 63 1.7 2.6 0.00 0.07 0.01 61 1012.8
20260507123054 48 60 1.7 2.6 0.00 0.07 0.01 64 1013.0
20260507121552 47 93 0.9 1.7 0.00 0.09 0.01 66 1013.1
20260507120053 46 241 0.0 1.7 0.00 0.09 0.01 73 1013.1
20260507114606 45 240 0.0 0.9 0.00 0.09 0.01 77 1013.0
20260507113105 45 240 0.0 0.0 0.00 0.09 0.01 77 1012.9
20260507111549 43 240 0.0 0.9 0.00 0.13 0.01 82 1012.8
20260507110044 40 240 0.0 0.9 0.00 0.13 0.01 84 1012.4
20260507104544 38 240 0.0 0.9 0.00 0.13 0.01 84 1012.4
20260507103048 40 240 0.0 0.9 0.00 0.13 0.01 82 1012.2
20260507101513 41 240 0.0 0.9 0.00 0.13 0.01 80 1012.1
20260507100004 41 240 0.0 0.9 0.00 0.13 0.01 78 1012.1
20260507094533 43 240 0.0 0.9 0.00 0.13 0.01 73 1012.0
20260507093028 45 240 0.0 0.0 0.00 0.13 0.01 69 1011.9
20260507091610 46 240 0.0 0.9 0.00 0.13 0.01 64 1011.8
20260507090049 48 240 0.0 1.7 0.00 0.13 0.01 62 1011.6
20260507084516 48 340 0.0 5.2 0.00 0.13 0.01 61 1011.5
20260507083014 48 290 1.7 4.3 0.00 0.13 0.01 60 1011.7
20260507081512 48 259 0.0 2.6 0.00 0.13 0.01 61 1011.8
20260507080012 49 304 0.0 2.6 0.00 0.13 0.01 61 1011.7
20260507074509 49 288 0.9 2.6 0.00 0.13 0.01 61 1011.6
20260507073007 49 265 0.0 1.7 0.00 0.13 0.01 61 1011.5
20260507071535 49 290 0.9 4.3 0.00 0.13 0.01 60 1011.7
20260507071505 49 290 0.9 6.1 0.00 0.13 0.01 60 1011.7
20260507070035 50 292 0.9 6.1 0.00 0.13 0.01 59 1011.7
20260507064502 50 250 1.7 5.2 0.00 0.13 0.01 59 1011.8
20260507063059 50 225 0.9 4.3 0.00 0.13 0.01 59 1011.8
20260507063001 50 264 0.0 3.5 0.00 0.13 0.01 60 1011.9
20260507061556 50 285 1.7 4.3 0.00 0.13 0.01 59 1011.9
20260507060101 50 198 0.9 5.2 0.00 0.13 0.01 61 1011.8
20260507054557 50 287 0.9 2.6 0.00 0.13 0.01 64 1011.9
20260507053053 51 240 1.7 5.2 0.00 0.13 0.01 63 1011.8
20260507051549 51 297 0.9 4.3 0.00 0.13 0.01 66 1012.1
20260507050047 51 246 0.0 3.5 0.00 0.13 0.01 69 1012.1
20260507044559 51 233 0.9 4.3 0.00 0.13 0.01 68 1012.1
20260507043059 52 286 2.6 5.2 0.00 0.13 0.01 71 1012.0
20260507041540 52 259 0.9 5.2 0.00 0.13 0.01 74 1011.9
20260507040040 52 224 0.9 3.5 0.00 0.13 0.01 74 1012.0
20260507034537 52 148 0.9 5.2 0.00 0.13 0.01 74 1011.9
20260507033035 53 238 0.0 4.3 0.00 0.13 0.01 75 1011.8
20260507031503 53 204 0.0 3.5 0.00 0.13 0.01 76 1011.6
20260507030007 53 240 0.0 1.7 0.00 0.13 0.01 77 1011.6
20260507024559 53 138 0.9 4.3 0.00 0.13 0.01 77 1011.6
20260507023110 53 129 0.0 2.6 0.00 0.13 0.01 77 1011.4
20260507021557 53 289 0.0 0.9 0.00 0.13 0.01 77 1010.9
20260507014556 53 194 0.0 4.3 0.00 0.13 0.01 76 1010.9
20260507013052 53 321 0.0 1.7 0.00 0.13 0.01 77 1010.8
20260507011551 53 309 0.0 2.6 0.00 0.13 0.01 77 1011.3
20260507010051 54 346 0.0 0.9 0.00 0.13 0.01 77 1011.3
20260507004549 54 262 0.9 5.2 0.00 0.13 0.01 78 1011.4
20260507003018 54 258 0.9 3.5 0.00 0.13 0.01 79 1011.2
20260507001553 54 149 1.7 5.2 0.00 0.13 0.01 80 1010.8
20260507001545 54 96 1.7 4.3 0.00 0.13 0.01 80 1010.8
20260507000015 54 124 0.9 7.0 0.00 0.13 0.01 81 1011.2
20260506234507 55 288 0.9 3.5 0.00 0.13 0.01 81 1010.5
20260506233003 55 177 0.9 7.0 0.00 0.13 0.01 82 1010.1
20260506231503 56 100 0.0 6.1 0.00 0.13 0.01 81 1009.6
20260506230048 56 217 0.0 5.2 0.00 0.13 0.01 81 1009.7
20260506224529 56 107 0.9 5.2 0.00 0.13 0.01 82 1009.7
20260506223029 56 127 0.0 4.3 0.00 0.13 0.01 82 1009.6
20260506221521 57 146 0.9 5.2 0.00 0.13 0.01 82 1009.6
20260506220018 57 115 0.9 7.8 0.00 0.13 0.01 80 1009.4
20260506214516 58 193 0.9 8.7 0.00 0.13 0.01 79 1009.1
20260506213043 58 161 1.7 8.7 0.00 0.13 0.01 79 1008.7
20260506211541 59 129 1.7 5.2 0.00 0.13 0.01 78 1008.6
20260506210051 60 157 1.7 4.3 0.00 0.13 0.01 78 1008.4
20260506204535 61 142 2.6 7.8 0.00 0.13 0.01 76 1008.0
20260506203045 61 133 0.9 9.6 0.00 0.13 0.01 79 1007.9
20260506201532 61 119 5.2 8.7 0.00 0.13 0.01 80 1007.7
20260506200011 61 137 2.6 6.1 0.00 0.13 0.01 82 1007.7
20260506194605 63 110 1.7 6.1 0.00 0.13 0.01 81 1007.6
20260506193035 64 206 2.6 8.7 0.00 0.13 0.01 78 1007.1
20260506191527 64 162 1.7 10.4 0.00 0.13 0.01 81 1007.1
20260506190054 64 120 1.7 5.2 0.00 0.13 0.01 83 1006.9
20260506184551 63 269 0.9 4.3 0.00 0.13 0.01 84 1007.0
20260506183046 62 63 0.0 3.5 0.00 0.13 0.01 88 1006.9
20260506181552 62 120 3.5 6.1 0.00 0.13 0.01 91 1006.8
20260506180044 62 94 4.3 7.8 0.00 0.13 0.01 90 1006.7
20260506174542 62 82 3.5 8.7 0.00 0.13 0.01 90 1006.7
20260506173012 61 86 2.6 6.1 0.00 0.13 0.01 91 1006.6
20260506171509 61 91 2.6 7.8 0.00 0.13 0.01 92 1006.6
20260506170043 60 115 5.2 8.7 0.01 0.13 0.01 93 1006.6
20260506164546 60 113 1.7 5.2 0.01 0.13 0.01 95 1006.6
20260506163027 59 91 2.6 5.2 0.01 0.13 0.01 95 1006.6
20260506161528 59 101 1.7 5.2 0.01 0.13 0.01 95 1006.7
20260506160024 59 110 1.7 4.3 0.00 0.12 0.00 93 1006.8
20260506154522 59 55 2.6 4.3 0.00 0.12 0.00 92 1006.6
20260506153006 59 96 2.6 4.3 0.00 0.12 0.00 92 1006.6
20260506151503 59 106 1.7 4.3 0.00 0.12 0.00 92 1006.3
20260506150048 59 97 0.9 2.6 0.00 0.12 0.00 92 1006.2